GCFIZ EGBO-EGBJ

Flight info

Callsign GCFIZ
Flight time 0h 20m
Altitude 2300
Route EGBO MALVERN EGBJ
Aircraft C208/L-G/L

Departure

Time 2026-05-05 10:46
Airport Wolverhampton Halfpenny Green Airport (EGBO)

Arrival

Time 2026-05-05 11:07
Airport Gloucestershire Airport (EGBJ)
Time Latitude Longitude Altitude Speed Heading
2026-05-05 10:39 52.51539 -2.26311 288 ft 0 kts 94°
2026-05-05 10:43 52.51524 -2.26271 288 ft 9 kts 124°
2026-05-05 10:44 52.51481 -2.26141 288 ft 15 kts 127°
2026-05-05 10:44 52.51400 -2.26016 288 ft 17 kts 154°
2026-05-05 10:44 52.51288 -2.25924 288 ft 17 kts 127°
2026-05-05 10:44 52.51248 -2.25752 288 ft 13 kts 100°
2026-05-05 10:45 52.51246 -2.25706 288 ft 0 kts 90°
2026-05-05 10:45 52.51246 -2.25705 288 ft 0 kts 89°
2026-05-05 10:46 52.51292 -2.25637 288 ft 19 kts 348°
2026-05-05 10:46 52.51696 -2.25933 316 ft 98 kts 333°
2026-05-05 10:46 52.52359 -2.26570 679 ft 118 kts 327°
2026-05-05 10:46 52.52925 -2.27483 1245 ft 114 kts 292°
2026-05-05 10:47 52.52737 -2.28768 1611 ft 123 kts 242°
2026-05-05 10:47 52.52301 -2.29879 2139 ft 121 kts 218°
2026-05-05 10:47 52.51470 -2.30660 1990 ft 151 kts 188°
2026-05-05 10:47 52.50413 -2.30533 1951 ft 156 kts 159°
2026-05-05 10:48 52.49460 -2.29629 1936 ft 158 kts 148°
2026-05-05 10:48 52.48478 -2.28844 1930 ft 157 kts 155°
2026-05-05 10:48 52.47483 -2.28113 1930 ft 156 kts 155°
2026-05-05 10:48 52.46455 -2.27535 1925 ft 157 kts 169°
2026-05-05 10:49 52.45381 -2.27394 1927 ft 157 kts 179°
2026-05-05 10:49 52.44284 -2.27478 1968 ft 154 kts 184°
2026-05-05 10:49 52.43234 -2.27643 1997 ft 151 kts 186°
2026-05-05 10:49 52.42192 -2.27836 2002 ft 148 kts 186°
2026-05-05 10:50 52.41172 -2.28031 2004 ft 147 kts 186°
2026-05-05 10:50 52.40165 -2.28226 2004 ft 146 kts 186°
2026-05-05 10:50 52.39151 -2.28423 2004 ft 146 kts 186°
2026-05-05 10:50 52.38141 -2.28620 2004 ft 146 kts 186°
2026-05-05 10:51 52.37132 -2.28816 2004 ft 146 kts 186°
2026-05-05 10:51 52.36133 -2.29011 2004 ft 146 kts 186°
2026-05-05 10:51 52.35117 -2.29209 2004 ft 146 kts 186°
2026-05-05 10:51 52.34116 -2.29403 2004 ft 146 kts 186°
2026-05-05 10:52 52.33103 -2.29600 2004 ft 146 kts 186°
2026-05-05 10:52 52.32096 -2.29796 2004 ft 146 kts 186°
2026-05-05 10:52 52.31088 -2.29992 2004 ft 146 kts 186°
2026-05-05 10:52 52.30079 -2.30187 2005 ft 147 kts 186°
2026-05-05 10:53 52.29061 -2.30383 2006 ft 150 kts 186°
2026-05-05 10:53 52.28042 -2.30582 2060 ft 146 kts 186°
2026-05-05 10:53 52.27047 -2.30774 2184 ft 143 kts 186°
2026-05-05 10:53 52.26069 -2.30963 2305 ft 140 kts 186°
2026-05-05 10:54 52.25109 -2.31149 2426 ft 139 kts 186°
2026-05-05 10:54 52.24128 -2.31338 2414 ft 147 kts 186°
2026-05-05 10:54 52.23072 -2.31543 2294 ft 156 kts 186°
2026-05-05 10:54 52.21986 -2.31757 2173 ft 161 kts 186°
2026-05-05 10:55 52.20865 -2.31976 2050 ft 163 kts 186°
2026-05-05 10:55 52.19743 -2.32194 2008 ft 160 kts 186°
2026-05-05 10:55 52.18661 -2.32404 2001 ft 154 kts 186°
2026-05-05 10:55 52.17627 -2.32606 2001 ft 147 kts 186°
2026-05-05 10:56 52.16625 -2.32798 2002 ft 143 kts 186°
2026-05-05 10:56 52.15636 -2.32988 2003 ft 141 kts 186°
2026-05-05 10:56 52.14678 -2.33171 2004 ft 140 kts 186°
2026-05-05 10:56 52.13713 -2.33357 2004 ft 139 kts 186°
2026-05-05 10:57 52.12752 -2.33541 2004 ft 139 kts 186°
2026-05-05 10:57 52.11794 -2.33616 2007 ft 138 kts 169°
2026-05-05 10:57 52.10878 -2.33165 2007 ft 138 kts 159°
2026-05-05 10:57 52.10004 -2.32532 2008 ft 138 kts 148°
2026-05-05 10:58 52.09179 -2.31668 1909 ft 144 kts 147°
2026-05-05 10:58 52.08308 -2.30793 1786 ft 149 kts 148°
2026-05-05 10:58 52.07418 -2.29905 1663 ft 151 kts 148°
2026-05-05 10:58 52.06520 -2.29010 1539 ft 152 kts 148°
2026-05-05 10:59 52.05632 -2.28128 1410 ft 147 kts 148°
2026-05-05 10:59 52.04771 -2.27271 1281 ft 144 kts 148°
2026-05-05 10:59 52.03926 -2.26429 1154 ft 142 kts 148°
2026-05-05 10:59 52.03084 -2.25592 1027 ft 140 kts 148°
2026-05-05 11:00 52.02261 -2.24773 915 ft 139 kts 148°
2026-05-05 11:00 52.01472 -2.23990 959 ft 128 kts 148°
2026-05-05 11:00 52.00725 -2.23251 1005 ft 121 kts 148°
2026-05-05 11:00 52.00018 -2.22554 1046 ft 117 kts 148°
2026-05-05 11:01 51.99320 -2.21865 1053 ft 117 kts 148°
2026-05-05 11:01 51.98624 -2.21179 1055 ft 118 kts 148°
2026-05-05 11:01 51.97919 -2.20484 1055 ft 118 kts 148°
2026-05-05 11:01 51.97217 -2.19793 1055 ft 118 kts 148°
2026-05-05 11:02 51.96509 -2.19096 1055 ft 119 kts 148°
2026-05-05 11:02 51.95805 -2.18402 1055 ft 119 kts 148°
2026-05-05 11:02 51.95099 -2.17707 1054 ft 119 kts 148°
2026-05-05 11:02 51.94392 -2.17010 1054 ft 119 kts 148°
2026-05-05 11:03 51.93677 -2.16307 1054 ft 119 kts 148°
2026-05-05 11:03 51.92957 -2.15654 1047 ft 118 kts 162°
2026-05-05 11:03 51.92207 -2.15774 1040 ft 107 kts 207°
2026-05-05 11:03 51.91610 -2.16466 1049 ft 104 kts 217°
2026-05-05 11:04 51.91058 -2.17214 1052 ft 103 kts 218°
2026-05-05 11:04 51.90511 -2.17969 1053 ft 102 kts 219°
2026-05-05 11:04 51.89977 -2.18708 1053 ft 101 kts 219°
2026-05-05 11:04 51.89434 -2.19459 1051 ft 101 kts 219°
2026-05-05 11:05 51.88900 -2.20196 999 ft 104 kts 219°
2026-05-05 11:05 51.88323 -2.20911 905 ft 105 kts 200°
2026-05-05 11:05 51.87611 -2.20854 805 ft 106 kts 150°
2026-05-05 11:05 51.87224 -2.19890 691 ft 107 kts 90°
2026-05-05 11:06 51.87437 -2.18740 540 ft 112 kts 53°
2026-05-05 11:06 51.87929 -2.17935 447 ft 90 kts 43°
2026-05-05 11:06 51.88411 -2.17330 281 ft 89 kts 33°
2026-05-05 11:06 51.88913 -2.16764 127 ft 86 kts 33°
2026-05-05 11:07 51.89333 -2.16289 106 ft 47 kts 29°
2026-05-05 11:07 51.89462 -2.16006 106 ft 24 kts 103°
2026-05-05 11:07 51.89393 -2.15833 106 ft 10 kts 140°
2026-05-05 11:07 51.89386 -2.15824 106 ft 3 kts 139°
2026-05-05 11:08 51.89353 -2.15808 106 ft 1 kts 259°
2026-05-05 11:08 51.89353 -2.15809 106 ft 0 kts 258°